| time (UTC) | temp F | wind direction | speed knots | gust knots | rain 1hr in | rain 24hr in | rain mn in | humidity % | barometer mb |
| 20260507211503 | 62 | 239 | 0.9 | 3.5 | 0.00 | 0.25 | 0.22 | 28 | 1005.1 |
| 20260507204601 | 63 | 237 | 2.6 | 7.8 | 0.00 | 0.27 | 0.22 | 27 | 1004.9 |
| 20260507203059 | 64 | 153 | 1.7 | 5.2 | 0.00 | 0.27 | 0.22 | 27 | 1005.0 |
| 20260507201609 | 64 | 63 | 1.7 | 6.1 | 0.00 | 0.27 | 0.22 | 27 | 1005.1 |
| 20260507200107 | 65 | 253 | 2.6 | 6.1 | 0.00 | 0.27 | 0.22 | 25 | 1005.0 |
| 20260507194558 | 67 | 54 | 1.7 | 5.2 | 0.00 | 0.27 | 0.22 | 24 | 1005.2 |
| 20260507193056 | 68 | 19 | 1.7 | 6.1 | 0.00 | 0.27 | 0.22 | 24 | 1005.4 |
| 20260507191555 | 69 | 175 | 1.7 | 6.1 | 0.00 | 0.27 | 0.22 | 23 | 1005.6 |
| 20260507190054 | 68 | 141 | 0.9 | 7.0 | 0.00 | 0.27 | 0.22 | 23 | 1005.6 |
| 20260507184554 | 68 | 103 | 2.6 | 7.8 | 0.00 | 0.27 | 0.22 | 25 | 1005.6 |
| 20260507183051 | 69 | 175 | 0.9 | 7.0 | 0.00 | 0.27 | 0.22 | 25 | 1005.9 |
| 20260507181547 | 68 | 294 | 0.9 | 3.5 | 0.00 | 0.27 | 0.22 | 27 | 1005.9 |
| 20260507180048 | 67 | 356 | 2.6 | 7.0 | 0.00 | 0.27 | 0.22 | 27 | 1006.1 |
| 20260507174557 | 67 | 285 | 0.9 | 6.1 | 0.00 | 0.27 | 0.22 | 27 | 1006.1 |
| 20260507173047 | 67 | 350 | 2.6 | 8.7 | 0.00 | 0.27 | 0.22 | 29 | 1006.1 |
| 20260507171556 | 66 | 312 | 1.7 | 5.2 | 0.00 | 0.27 | 0.22 | 32 | 1006.2 |
| 20260507170045 | 66 | 218 | 2.6 | 6.1 | 0.00 | 0.27 | 0.22 | 32 | 1006.3 |
| 20260507164540 | 65 | 133 | 1.7 | 7.0 | 0.00 | 0.27 | 0.22 | 38 | 1006.4 |
| 20260507163038 | 65 | 351 | 1.7 | 4.3 | 0.00 | 0.27 | 0.22 | 40 | 1006.6 |
| 20260507161538 | 65 | 50 | 0.9 | 7.0 | 0.00 | 0.27 | 0.22 | 44 | 1006.7 |
| 20260507160034 | 64 | 54 | 0.9 | 7.0 | 0.00 | 0.27 | 0.22 | 45 | 1006.9 |
| 20260507154535 | 62 | 179 | 2.6 | 5.2 | 0.00 | 0.27 | 0.22 | 46 | 1007.1 |
| 20260507153031 | 62 | 33 | 2.6 | 7.0 | 0.00 | 0.27 | 0.22 | 50 | 1007.2 |
| 20260507151531 | 62 | 1 | 0.9 | 4.3 | 0.00 | 0.27 | 0.22 | 52 | 1007.2 |
| 20260507150029 | 62 | 67 | 0.9 | 6.1 | 0.00 | 0.27 | 0.22 | 51 | 1007.3 |
| 20260507144534 | 60 | 48 | 0.9 | 4.3 | 0.00 | 0.27 | 0.22 | 55 | 1007.6 |
| 20260507143025 | 60 | 65 | 0.9 | 3.5 | 0.00 | 0.27 | 0.22 | 55 | 1007.7 |
| 20260507141521 | 59 | 17 | 0.9 | 5.2 | 0.00 | 0.27 | 0.22 | 56 | 1007.8 |
| 20260507140019 | 57 | 39 | 2.6 | 6.1 | 0.00 | 0.27 | 0.22 | 59 | 1007.9 |
| 20260507134518 | 56 | 166 | 0.9 | 3.5 | 0.00 | 0.27 | 0.22 | 72 | 1007.9 |
| 20260507133015 | 55 | 29 | 1.7 | 5.2 | 0.00 | 0.27 | 0.22 | 79 | 1008.0 |
| 20260507131515 | 53 | 221 | 0.9 | 2.6 | 0.00 | 0.27 | 0.22 | 88 | 1007.9 |
| 20260507130013 | 52 | 214 | 0.9 | 3.5 | 0.00 | 0.27 | 0.22 | 94 | 1008.1 |
| 20260507124513 | 52 | 66 | 0.9 | 2.6 | 0.00 | 0.27 | 0.22 | 96 | 1008.1 |
| 20260507123011 | 50 | 188 | 0.0 | 0.9 | 0.00 | 0.27 | 0.22 | 96 | 1008.4 |
| 20260507121511 | 49 | 139 | 0.0 | 0.9 | 0.00 | 0.27 | 0.22 | 96 | 1008.3 |
| 20260507120010 | 49 | 139 | 0.0 | 0.9 | 0.01 | 0.27 | 0.22 | 96 | 1008.0 |
| 20260507114509 | 48 | 125 | 0.0 | 0.9 | 0.01 | 0.27 | 0.22 | 96 | 1008.1 |
| 20260507113013 | 48 | 118 | 0.0 | 0.0 | 0.03 | 0.27 | 0.22 | 95 | 1008.1 |
| 20260507111509 | 48 | 118 | 0.0 | 1.7 | 0.05 | 0.27 | 0.22 | 95 | 1007.9 |
| 20260507110008 | 48 | 90 | 0.0 | 0.9 | 0.06 | 0.26 | 0.21 | 95 | 1007.7 |
| 20260507104509 | 48 | 87 | 0.0 | 0.9 | 0.07 | 0.26 | 0.21 | 95 | 1007.6 |
| 20260507103005 | 48 | 87 | 0.0 | 1.7 | 0.06 | 0.24 | 0.19 | 94 | 1007.7 |
| 20260507101506 | 48 | 118 | 0.0 | 0.9 | 0.05 | 0.22 | 0.17 | 94 | 1007.8 |
| 20260507100004 | 48 | 115 | 0.0 | 1.7 | 0.03 | 0.20 | 0.15 | 93 | 1007.7 |
| 20260507094504 | 48 | 112 | 0.0 | 0.9 | 0.04 | 0.19 | 0.14 | 93 | 1007.3 |
| 20260507093002 | 48 | 277 | 0.0 | 2.6 | 0.05 | 0.18 | 0.13 | 92 | 1007.6 |
| 20260507091501 | 48 | 177 | 0.0 | 2.6 | 0.06 | 0.17 | 0.12 | 92 | 1007.2 |
| 20260507090058 | 49 | 38 | 0.0 | 2.6 | 0.08 | 0.17 | 0.12 | 91 | 1007.0 |
| 20260507084556 | 50 | 102 | 0.0 | 2.6 | 0.07 | 0.15 | 0.10 | 90 | 1007.0 |
| 20260507083054 | 51 | 69 | 0.0 | 0.9 | 0.08 | 0.13 | 0.08 | 90 | 1007.0 |
| 20260507081552 | 51 | 48 | 0.0 | 1.7 | 0.06 | 0.11 | 0.06 | 89 | 1006.6 |
| 20260507080050 | 52 | 114 | 0.0 | 2.6 | 0.04 | 0.09 | 0.04 | 87 | 1007.1 |
| 20260507074548 | 53 | 189 | 0.0 | 2.6 | 0.03 | 0.08 | 0.03 | 84 | 1007.0 |
| 20260507073044 | 54 | 120 | 0.0 | 3.5 | 0.00 | 0.05 | 0.00 | 83 | 1006.3 |
| 20260507071543 | 55 | 246 | 0.0 | 2.6 | 0.00 | 0.05 | 0.00 | 85 | 1006.0 |
| 20260507070045 | 55 | 359 | 0.0 | 2.6 | 0.00 | 0.05 | 0.00 | 85 | 1005.8 |
| 20260507064541 | 55 | 18 | 0.0 | 3.5 | 0.00 | 0.05 | 0.00 | 87 | 1005.9 |
| 20260507063046 | 55 | 79 | 0.0 | 1.7 | 0.00 | 0.05 | 0.00 | 89 | 1006.1 |
| 20260507061541 | 55 | 100 | 0.0 | 2.6 | 0.00 | 0.05 | 0.00 | 90 | 1006.0 |
| 20260507060047 | 57 | 146 | 0.0 | 2.6 | 0.00 | 0.05 | 0.00 | 94 | 1006.2 |
| 20260507054544 | 57 | 148 | 0.0 | 1.7 | 0.00 | 0.05 | 0.00 | 95 | 1006.2 |
| 20260507053031 | 58 | 148 | 0.0 | 1.7 | 0.00 | 0.05 | 0.00 | 95 | 1006.2 |
| 20260507051531 | 58 | 171 | 0.0 | 1.7 | 0.00 | 0.05 | 0.00 | 95 | 1006.3 |
| 20260507050030 | 58 | 244 | 0.0 | 2.6 | 0.00 | 0.05 | 0.00 | 95 | 1006.3 |
| 20260507044546 | 58 | 203 | 0.0 | 1.7 | 0.00 | 0.05 | 0.00 | 95 | 1006.2 |
| 20260507043029 | 58 | 92 | 0.0 | 2.6 | 0.00 | 0.05 | 0.00 | 95 | 1006.1 |
| 20260507041528 | 58 | 94 | 0.0 | 2.6 | 0.00 | 0.05 | 0.00 | 95 | 1006.2 |
| 20260507040032 | 58 | 125 | 0.0 | 2.6 | 0.00 | 0.05 | 0.05 | 95 | 1006.4 |
| 20260507034528 | 58 | 162 | 0.0 | 2.6 | 0.00 | 0.05 | 0.05 | 95 | 1006.4 |
| 20260507033026 | 58 | 179 | 0.0 | 2.6 | 0.00 | 0.05 | 0.05 | 95 | 1006.4 |
| 20260507031525 | 57 | 164 | 0.9 | 2.6 | 0.00 | 0.05 | 0.05 | 95 | 1006.2 |
| 20260507030026 | 57 | 173 | 0.0 | 2.6 | 0.00 | 0.05 | 0.05 | 95 | 1006.1 |
| 20260507024525 | 57 | 166 | 0.0 | 2.6 | 0.00 | 0.05 | 0.05 | 95 | 1006.0 |
| 20260507023024 | 57 | 178 | 0.9 | 2.6 | 0.00 | 0.05 | 0.05 | 95 | 1006.0 |
| 20260507021523 | 57 | 290 | 0.0 | 1.7 | 0.00 | 0.05 | 0.05 | 95 | 1006.1 |
| 20260507020033 | 57 | 164 | 0.0 | 3.5 | 0.00 | 0.05 | 0.05 | 95 | 1006.1 |
| 20260507014523 | 57 | 248 | 0.9 | 2.6 | 0.00 | 0.05 | 0.05 | 95 | 1006.2 |
| 20260507013021 | 57 | 148 | 0.9 | 4.3 | 0.00 | 0.05 | 0.05 | 95 | 1006.5 |
| 20260507011521 | 56 | 221 | 0.0 | 2.6 | 0.00 | 0.05 | 0.05 | 95 | 1006.6 |
| 20260507010026 | 56 | 315 | 0.0 | 2.6 | 0.00 | 0.05 | 0.05 | 95 | 1006.7 |
| 20260507004526 | 56 | 233 | 0.0 | 3.5 | 0.00 | 0.05 | 0.05 | 94 | 1006.6 |
| 20260507003026 | 56 | 306 | 0.9 | 2.6 | 0.01 | 0.05 | 0.05 | 94 | 1006.5 |
| 20260507001524 | 56 | 272 | 0.9 | 6.1 | 0.01 | 0.05 | 0.05 | 94 | 1006.5 |
| 20260507000055 | 56 | 192 | 0.9 | 4.3 | 0.01 | 0.05 | 0.05 | 94 | 1006.5 |
| 20260506234555 | 56 | 235 | 1.7 | 3.5 | 0.01 | 0.05 | 0.05 | 94 | 1006.3 |
| 20260506233053 | 56 | 174 | 0.9 | 4.3 | 0.00 | 0.04 | 0.04 | 93 | 1006.2 |
| 20260506231552 | 57 | 245 | 2.6 | 6.1 | 0.00 | 0.04 | 0.04 | 93 | 1006.4 |
| 20260506230054 | 57 | 295 | 0.9 | 4.3 | 0.00 | 0.04 | 0.04 | 93 | 1006.5 |
| 20260506224601 | 57 | 201 | 0.0 | 2.6 | 0.01 | 0.04 | 0.04 | 93 | 1006.4 |
| 20260506223049 | 58 | 177 | 0.9 | 3.5 | 0.01 | 0.04 | 0.04 | 93 | 1006.5 |
| 20260506221548 | 58 | 312 | 0.0 | 2.6 | 0.01 | 0.04 | 0.04 | 92 | 1006.7 |
| 20260506220048 | 58 | 161 | 0.9 | 4.3 | 0.01 | 0.04 | 0.04 | 92 | 1006.8 |
| 20260506214604 | 59 | 150 | 1.7 | 7.0 | 0.02 | 0.03 | 0.03 | 91 | 1006.9 |
| 20260506213046 | 59 | 237 | 0.9 | 5.2 | 0.02 | 0.03 | 0.03 | 91 | 1007.0 |